Time,TemperatureF,DewpointF,PressureIn,WindDirection,WindDirectionDegrees,WindSpeedMPH,WindSpeedGustMPH,Humidity,HourlyPrecipIn,Conditions,Clouds,dailyrainin,SoftwareType,DateUTC
2013-03-02 00:00:00,26.0,-99.9,-100.00,North,360,0.0,0.0,-999,-99.99,,,0.01,,2013-03-02 07:00:00,
2013-03-02 00:52:00,26.0,-99.9,-100.00,North,360,0.0,0.0,-999,-99.99,,,0.01,,2013-03-02 07:52:00,
2013-03-02 01:00:00,25.0,-99.9,-100.00,North,-999,-999.0,-999.0,-999,-99.99,,,0.01,,2013-03-02 08:00:00,
2013-03-02 01:53:00,25.0,-99.9,-100.00,North,-999,-999.0,-999.0,-999,-99.99,,,0.01,,2013-03-02 08:53:00,
2013-03-02 02:00:00,25.0,-99.9,-100.00,North,360,0.0,0.0,-999,-99.99,,,0.01,,2013-03-02 09:00:00,
2013-03-02 02:52:00,25.0,-99.9,-100.00,North,360,0.0,0.0,-999,-99.99,,,0.01,,2013-03-02 09:52:00,
2013-03-02 03:00:00,25.0,-99.9,-100.00,North,360,0.0,0.0,-999,-99.99,,,0.01,,2013-03-02 10:00:00,
2013-03-02 03:52:00,25.0,-99.9,-100.00,North,360,0.0,0.0,-999,-99.99,,,0.01,,2013-03-02 10:52:00,
2013-03-02 04:00:00,25.0,-99.9,-100.00,North,0,0.0,0.0,-999,-99.99,,,0.01,,2013-03-02 11:00:00,
2013-03-02 04:52:00,25.0,-99.9,-100.00,North,0,0.0,0.0,-999,-99.99,,,0.01,,2013-03-02 11:52:00,
2013-03-02 05:00:00,25.0,-99.9,-100.00,North,0,0.0,0.0,-999,-99.99,,,0.01,,2013-03-02 12:00:00,
2013-03-02 05:53:00,25.0,-99.9,-100.00,North,0,0.0,0.0,-999,-99.99,,,0.01,,2013-03-02 12:53:00,
2013-03-02 06:00:00,25.0,-99.9,-100.00,North,360,0.0,0.0,-999,-99.99,,,0.01,,2013-03-02 13:00:00,
2013-03-02 07:00:00,26.0,-99.9,-100.00,North,0,0.0,0.0,-999,-99.99,,,0.01,,2013-03-02 14:00:00,
2013-03-02 07:52:00,26.0,-99.9,-100.00,North,0,0.0,0.0,-999,-99.99,,,0.01,,2013-03-02 14:52:00,
2013-03-02 08:00:00,27.0,-99.9,-100.00,North,360,0.0,0.0,-999,-99.99,,,0.01,,2013-03-02 15:00:00,
2013-03-02 08:52:00,27.0,-99.9,-100.00,North,360,0.0,0.0,-999,-99.99,,,0.01,,2013-03-02 15:52:00,
2013-03-02 09:00:00,33.0,-99.9,-100.00,North,360,0.0,0.0,-999,-99.99,,,0.01,,2013-03-02 16:00:00,
2013-03-02 09:52:00,33.0,-99.9,-100.00,North,360,0.0,0.0,-999,-99.99,,,0.01,,2013-03-02 16:52:00,
2013-03-02 10:00:00,38.0,-99.9,-100.00,North,0,1.0,5.0,-999,-99.99,,,0.01,,2013-03-02 17:00:00,
2013-03-02 10:52:00,38.0,-99.9,-100.00,North,0,1.0,5.0,-999,-99.99,,,0.01,,2013-03-02 17:52:00,
2013-03-02 11:00:00,41.0,-99.9,-100.00,North,360,2.0,4.0,-999,-99.99,,,0.01,,2013-03-02 18:00:00,
2013-03-02 11:52:00,41.0,-99.9,-100.00,North,360,2.0,4.0,-999,-99.99,,,0.01,,2013-03-02 18:52:00,
2013-03-02 12:00:00,41.0,-99.9,-100.00,North,0,3.0,8.0,-999,-99.99,,,0.01,,2013-03-02 19:00:00,
2013-03-02 12:52:00,41.0,-99.9,-100.00,North,0,3.0,8.0,-999,-99.99,,,0.01,,2013-03-02 19:52:00,
2013-03-02 13:00:00,43.0,-99.9,-100.00,North,360,3.0,9.0,-999,-99.99,,,0.01,,2013-03-02 20:00:00,
2013-03-02 13:53:00,43.0,-99.9,-100.00,North,360,3.0,9.0,-999,-99.99,,,0.01,,2013-03-02 20:53:00,
2013-03-02 14:00:00,45.0,-99.9,-100.00,North,0,3.0,7.0,-999,-99.99,,,0.00,,2013-03-02 21:00:00,
2013-03-02 14:53:00,45.0,-99.9,-100.00,North,0,3.0,7.0,-999,-99.99,,,0.00,,2013-03-02 21:53:00,
2013-03-02 15:00:00,43.0,-99.9,-100.00,North,0,3.0,8.0,-999,-99.99,,,0.00,,2013-03-02 22:00:00,
2013-03-02 15:52:00,43.0,-99.9,-100.00,North,0,3.0,8.0,-999,-99.99,,,0.00,,2013-03-02 22:52:00,
2013-03-02 16:00:00,42.0,-99.9,-100.00,North,0,3.0,6.0,-999,-99.99,,,0.00,,2013-03-02 23:00:00,
2013-03-02 16:52:00,42.0,-99.9,-100.00,North,0,3.0,6.0,-999,-99.99,,,0.00,,2013-03-02 23:52:00,
2013-03-02 17:00:00,41.0,-99.9,-100.00,North,-999,-999.0,-999.0,-999,-99.99,,,0.00,,2013-03-03 00:00:00,
2013-03-02 17:53:00,41.0,-99.9,-100.00,North,-999,-999.0,-999.0,-999,-99.99,,,0.00,,2013-03-03 00:53:00,
2013-03-02 19:00:00,30.0,-99.9,-100.00,North,-999,-999.0,-999.0,-999,-99.99,,,0.00,,2013-03-03 02:00:00,
2013-03-02 19:53:00,30.0,-99.9,-100.00,North,-999,-999.0,-999.0,-999,-99.99,,,0.00,,2013-03-03 02:53:00,
2013-03-02 20:00:00,29.0,-99.9,-100.00,North,-999,-999.0,-999.0,-999,-99.99,,,0.00,,2013-03-03 03:00:00,
2013-03-02 20:52:00,29.0,-99.9,-100.00,North,-999,-999.0,-999.0,-999,-99.99,,,0.00,,2013-03-03 03:52:00,
2013-03-02 21:00:00,26.0,-99.9,-100.00,North,-999,-999.0,-999.0,-999,-99.99,,,0.00,,2013-03-03 04:00:00,
2013-03-02 21:52:00,26.0,-99.9,-100.00,North,-999,-999.0,-999.0,-999,-99.99,,,0.00,,2013-03-03 04:52:00,
2013-03-02 23:00:00,25.0,-99.9,-100.00,North,-999,-999.0,-999.0,-999,-99.99,,,0.00,,2013-03-03 06:00:00,
2013-03-02 23:52:00,25.0,-99.9,-100.00,North,-999,-999.0,-999.0,-999,-99.99,,,0.00,,2013-03-03 06:52:00,